CAPE
0 0 0 0 0 0 0 0 0 0 0 12 15 141 140 107 211 82 2 367 451 443 619 957 1095 1235 1174 1124 870 783 792 555 668 673 635 559 533 637 710 762 730 616 535 434 330 305 380 530 423
0 0 0 0 0 0 0 0 0 4 53 38 72 76 133 69 4 15 117 686 641 590 569 595 668 975 1129 1030 834 589 505 392 405 440 567 586 537 575 659 608 655 570 487 471 431 304 332 496 495
0 0 0 0 0 0 0 0 3 5 35 48 54 92 59 0 0 61 479 611 457 472 540 524 706 954 880 778 716 596 478 347 291 277 344 355 483 568 593 584 526 563 510 431 390 446 411 449 405
0 0 0 0 0 0 0 0 1 1 0 2 22 0 0 0 0 378 366 311 227 78 182 459 708 727 653 630 578 546 519 434 349 332 340 308 319 542 576 573 491 483 493 455 356 411 744 794 483
0 0 0 0 0 0 0 0 13 21 0 1 10 0 0 0 108 439 183 63 0 0 0 83 170 249 262 283 359 427 443 413 386 317 287 284 254 330 357 381 333 314 330 212 226 326 635 691 532
0 0 0 0 0 0 0 2 6 7 6 0 1 0 0 0 0 14 0 0 0 0 0 0 0 0 32 53 70 69 37 36 17 57 125 231 298 344 325 252 254 216 151 259 339 524 594 673 576
0 0 0 0 0 0 0 0 0 3 0 0 0 0 0 0 0 0 0 0 0 0 0 0 0 0 0 0 0 0 0 0 0 0 0 2 8 9 15 56 158 171 172 178 492 567 507 620 567
0 0 0 0 0 0 0 0 0 0 0 0 0 0 0 0 0 0 0 0 0 0 0 0 0 0 0 0 0 0 0 0 0 0 0 0 0 0 0 0 0 48 98 138 242 505 508 471 471
0 0 0 0 0 0 0 0 0 0 0 0 0 0 0 0 0 0 0 0 0 0 0 0 0 0 0 0 0 0 0 0 0 0 0 0 0 0 0 0 0 0 3 80 81 60 204 181 68
0 0 0 0 0 0 0 0 0 0 0 0 0 0 0 0 0 0 0 0 0 0 0 0 0 0 0 0 0 0 0 0 0 0 0 0 0 0 0 0 0 0 0 0 1 63 2 0 1
0 0 0 0 0 0 0 0 0 0 0 0 0 0 0 0 0 0 0 0 0 0 0 0 0 0 0 0 0 0 0 0 0 0 0 0 0 0 0 0 0 0 0 0 0 1 0 0 0
0 0 0 0 0 0 0 0 0 0 0 0 0 0 0 0 0 0 0 0 0 0 0 0 0 0 0 0 0 0 0 0 0 0 0 0 0 0 0 0 0 0 0 0 0 0 0 6 3
0 0 0 0 0 0 0 0 0 0 0 0 0 0 0 0 0 0 0 0 0 0 0 0 0 0 0 0 0 0 0 0 0 0 0 0 0 0 0 0 0 0 0 0 0 0 0 0 10
0 0 0 0 0 0 0 0 0 0 0 0 0 0 0 0 0 0 0 0 0 0 0 0 0 0 0 0 0 0 0 0 0 0 0 0 0 0 0 0 0 0 0 0 0 0 0 0 0
0 0 0 0 0 0 0 0 0 0 0 0 0 0 0 0 0 0 0 0 0 0 0 0 0 0 0 0 0 0 0 0 0 0 0 0 0 0 0 0 0 0 0 0 0 0 0 0 0
0 0 0 0 0 0 0 0 0 0 0 0 0 0 0 0 0 0 0 0 0 0 0 0 0 0 0 0 0 0 0 0 0 0 0 0 0 0 0 0 0 0 0 0 0 0 0 0 0
0 0 0 0 0 0 0 0 0 0 0 0 0 0 0 0 0 0 0 0 0 0 0 0 0 0 0 0 0 0 0 0 0 0 0 0 0 0 0 0 0 0 0 0 0 0 0 0 0
0 0 0 0 0 0 0 0 0 0 0 0 0 0 0 0 0 0 0 0 0 0 0 0 0 0 0 0 0 0 0 0 0 0 0 0 0 0 0 0 0 0 0 0 0 0 0 0 0
0 0 0 0 0 0 0 0 0 0 0 0 0 0 0 0 0 0 0 0 0 0 0 0 0 0 0 0 0 0 0 0 0 0 0 0 0 0 0 0 0 0 0 0 0 0 0 0 0
0 0 0 0 0 0 0 0 0 0 0 0 0 0 0 0 0 0 0 0 0 0 0 0 0 0 0 0 0 0 0 0 0 0 0 0 0 0 0 0 0 0 0 0 0 0 0 0 0
0 0 0 0 0 0 0 0 0 0 0 0 0 0 0 0 0 0 0 0 0 0 0 0 0 0 0 0 0 0 0 0 0 0 0 0 0 0 0 0 0 0 0 0 0 0 0 0 0
0 0 0 0 0 0 0 0 0 0 0 0 0 0 0 0 0 0 0 0 0 0 0 0 0 0 0 0 0 0 0 0 0 0 0 0 0 0 0 0 0 1 2 0 1 0 0 4 3
0 0 0 0 0 0 0 0 0 0 0 0 0 0 0 0 0 0 0 0 0 0 0 0 0 0 0 0 0 0 0 0 0 0 0 0 0 0 0 0 0 0 4 7 3 4 1 3 8
0 0 0 0 0 0 0 0 0 0 0 0 0 0 0 0 0 0 0 0 0 0 0 0 0 0 0 0 0 0 0 0 0 0 0 0 0 0 0 2 2 5 8 7 7 9 9 9 10
0 0 0 0 0 0 0 0 0 0 0 0 0 0 0 0 0 0 0 0 0 0 0 0 0 0 0 0 0 0 0 0 0 0 0 0 0 0 0 1 2 5 6 5 6 7 8 11 12
0 0 0 0 0 0 0 0 0 0 0 0 0 0 0 0 0 0 0 0 0 0 0 0 0 0 0 0 0 0 0 0 0 0 0 0 0 0 0 2 3 4 6 4 5 8 12 10 9
0 0 0 0 0 0 0 0 0 0 0 0 0 0 0 0 0 0 0 0 0 0 0 0 0 0 0 0 0 0 0 0 0 0 0 0 0 2 3 3 6 7 7 9 9 10 10 10 9
0 0 0 0 0 0 0 0 0 0 0 0 0 0 0 0 0 0 0 0 0 0 0 0 0 0 0 0 0 0 0 0 0 0 0 0 1 3 2 5 5 6 6 8 10 9 7 7 5
0 0 0 0 0 0 0 0 0 0 0 0 0 0 0 0 0 0 0 0 0 0 0 0 0 0 0 0 0 0 0 0 0 0 0 0 3 2 2 2 3 3 4 4 6 6 5 6 7
0 0 0 0 0 0 0 0 0 0 0 0 0 0 0 0 0 0 0 0 0 0 0 0 0 0 0 0 0 0 0 0 0 0 0 0 1 0 0 1 2 3 4 3 5 6 6 6 5
CIN
0 0 0 0 0 0 0 0 0 0 0 -86 -97 -97 -157 -162 -100 -90 -38 -29 -31 -78 -41 -4 -4 -1 -1 0 -1 -1 -1 -6 -3 -1 -3 -5 -11 -5 -3 -2 -3 -8 -6 -27 -11 -13 -12 -23 -25
0 0 0 0 0 0 0 0 0 -24 -63 -83 -65 -88 -94 -150 -131 -125 -111 -31 -37 -33 -44 -30 -19 -3 0 0 -2 -5 -5 -8 -5 -7 -2 -1 -2 -2 -1 -5 -1 -2 -8 -16 -11 -7 -14 -13 -17
0 0 0 0 0 0 0 0 -21 -60 -58 -34 -54 -129 -135 0 0 -56 -49 -35 -67 -73 -54 -48 -13 -1 0 -2 -2 -2 -6 -13 -14 -11 -3 -3 -2 -2 -1 -1 -1 -7 -11 -2 -1 0 -3 -8 -9
0 0 0 0 0 0 0 0 -42 -37 0 -61 -81 -3 0 0 0 -63 -70 -87 -160 -245 -180 -55 -13 -3 -1 -1 -6 -6 -5 -7 -19 -14 -3 -1 0 0 0 0 -1 0 -14 0 0 -1 -1 -1 -7
0 0 0 0 0 0 0 0 -33 -23 -32 -35 -39 0 0 0 -165 -55 -128 -221 0 0 0 -149 -155 -101 -84 -65 -36 -14 -9 -10 -11 -21 -18 -10 -4 -1 -1 0 -1 0 0 -2 -3 -1 -5 -8 -2
0 0 0 0 0 0 0 -31 -28 -34 -41 -8 -30 0 0 0 0 -93 0 0 0 0 0 0 0 0 -76 -140 -122 -111 -120 -133 -67 -36 -78 -37 -18 -8 0 -2 -2 -4 -4 0 0 0 -5 -2 -17
0 0 0 0 0 0 0 0 0 -37 -30 -7 0 0 0 0 0 0 0 0 0 0 0 0 0 0 0 0 0 0 0 0 0 0 0 -48 -142 -220 -162 -86 -30 -14 -4 -1 0 0 -1 -2 -1
0 0 0 0 0 0 0 0 0 0 0 0 0 0 0 0 0 0 0 0 0 0 0 0 0 0 0 0 0 0 0 0 0 0 0 0 0 0 0 0 0 -58 -15 -17 -4 0 -1 -1 -2
0 0 0 0 0 0 0 0 0 0 0 0 0 0 0 0 0 0 0 0 0 0 0 0 0 0 0 0 0 0 0 0 0 0 0 0 0 0 0 0 0 0 -5 -30 -10 -14 -4 -5 -17
0 0 0 0 0 0 0 0 0 0 0 0 0 0 0 0 0 0 0 0 0 0 0 0 0 0 0 0 0 0 0 0 0 0 0 0 0 0 0 0 0 0 0 0 0 -27 -3 0 -52
0 0 0 0 0 0 0 0 0 0 0 0 0 0 0 0 0 0 0 0 0 0 0 0 0 0 0 0 0 0 0 0 0 0 0 0 0 0 0 0 0 0 0 0 0 0 0 0 0
0 0 0 0 0 0 0 0 0 0 0 0 0 0 0 0 0 0 0 0 0 0 0 0 0 0 0 0 0 0 0 0 0 0 0 0 0 0 0 0 0 0 0 0 0 0 0 0 -5
0 0 0 0 0 0 0 0 0 0 0 0 0 0 0 0 0 0 0 0 0 0 0 0 0 0 0 0 0 0 0 0 0 0 0 0 0 0 0 0 0 0 0 0 0 0 0 0 0
0 0 0 0 0 0 0 0 0 0 0 0 0 0 0 0 0 0 0 0 0 0 0 0 0 0 0 0 0 0 0 0 0 0 0 0 0 0 0 0 0 0 0 0 0 0 0 0 0
0 0 0 0 0 0 0 0 0 0 0 0 0 0 0 0 0 0 0 0 0 0 0 0 0 0 0 0 0 0 0 0 0 0 0 0 0 0 0 0 0 0 0 0 0 0 0 0 0
0 0 0 0 0 0 0 0 0 0 0 0 0 0 0 0 0 0 0 0 0 0 0 0 0 0 0 0 0 0 0 0 0 0 0 0 0 0 0 0 0 0 0 0 0 0 0 0 0
0 0 0 0 0 0 0 0 0 0 0 0 0 0 0 0 0 0 0 0 0 0 0 0 0 0 0 0 0 0 0 0 0 0 0 0 0 0 0 0 0 0 0 0 0 0 0 0 0
0 0 0 0 0 0 0 0 0 0 0 0 0 0 0 0 0 0 0 0 0 0 0 0 0 0 0 0 0 0 0 0 0 0 0 0 0 0 0 0 0 0 0 0 0 0 0 0 0
0 0 0 0 0 0 0 0 0 0 0 0 0 0 0 0 0 0 0 0 0 0 0 0 0 0 0 0 0 0 0 0 0 0 0 0 0 0 0 0 0 0 0 0 0 0 0 0 0
0 0 0 0 0 0 0 0 0 0 0 0 0 0 0 0 0 0 0 0 0 0 0 0 0 0 0 0 0 0 0 0 0 0 0 0 0 0 0 0 0 0 0 0 0 0 0 0 0
0 0 0 0 0 0 0 0 0 0 0 0 0 0 0 0 0 0 0 0 0 0 0 0 0 0 0 0 0 0 0 0 0 0 0 0 0 0 0 0 0 0 0 0 0 0 0 0 0
0 0 0 0 0 0 0 0 0 0 0 0 0 0 0 0 0 0 0 0 0 0 0 0 0 0 0 0 0 0 0 0 0 0 0 0 0 0 0 0 0 -2 -1 -2 -1 0 -1 -4 -1
0 0 0 0 0 0 0 0 0 0 0 0 0 0 0 0 0 0 0 0 0 0 0 0 0 0 0 0 0 0 0 0 0 0 0 0 0 0 0 -1 -2 -3 -2 0 -2 -1 0 0 0
0 0 0 0 0 0 0 0 0 0 0 0 0 0 0 0 0 0 0 0 0 0 0 0 0 0 0 0 0 0 0 0 0 0 0 0 0 0 0 0 -1 0 0 0 0 0 0 0 0
0 0 0 0 0 0 0 0 0 0 0 0 0 0 0 0 0 0 0 0 0 0 0 0 0 0 0 0 0 0 0 0 0 0 0 0 0 0 0 -2 -1 0 0 0 0 0 0 0 0
0 0 0 0 0 0 0 0 0 0 0 0 0 0 0 0 0 0 0 0 0 0 0 0 0 0 0 0 0 0 0 0 0 0 0 0 0 0 -1 -1 0 0 0 0 0 0 0 0 -1
0 0 0 0 0 0 0 0 0 0 0 0 0 0 0 0 0 0 0 0 0 0 0 0 0 0 0 0 0 0 0 0 0 0 0 0 0 0 0 0 0 0 0 0 0 0 0 0 0
0 0 0 0 0 0 0 0 0 0 0 0 0 0 0 0 0 0 0 0 0 0 0 0 0 0 0 0 0 0 0 0 0 0 0 0 0 0 0 0 0 0 0 0 0 0 0 0 0
0 0 0 0 0 0 0 0 0 0 0 0 0 0 0 0 0 0 0 0 0 0 0 0 0 0 0 0 0 0 0 0 0 0 0 0 0 0 0 0 0 0 0 0 0 0 0 0 0
0 0 0 0 0 0 0 0 0 0 0 0 0 0 0 0 0 0 0 0 0 0 0 0 0 0 0 0 0 0 0 0 0 0 0 0 0 0 0 0 0 0 0 0 0 0 0 0 0
Wind_Speed
6 6 0 4 4 4 4 8 7 10 1 4 3 9 10 5 3 5 5 3 4 11 8 8 11 8 9 9 8 8 7 8 7 5 5 6 6 5 5 5 5 5 5 4 3 1 4 7 7
3 5 1 0 4 1 6 9 11 4 5 7 6 7 5 3 5 6 4 8 12 11 10 6 10 9 9 8 7 7 6 6 6 5 5 4 3 3 2 2 2 2 3 3 2 0 4 6 7
3 4 3 4 4 6 6 4 2 2 7 5 4 6 4 4 2 3 4 10 9 10 10 8 11 10 8 7 6 5 4 4 3 3 2 2 1 0 1 1 1 2 3 4 4 4 3 6 6
0 4 4 2 7 9 8 6 2 5 4 3 4 8 5 2 4 7 7 8 13 9 8 9 11 12 12 11 8 4 3 2 1 1 1 2 2 3 3 2 3 4 6 6 7 7 5 7 8
0 0 2 3 8 10 8 10 3 3 7 5 4 6 5 2 9 10 8 7 12 7 6 8 13 13 11 10 10 10 9 8 6 4 3 4 4 4 5 5 5 7 7 8 9 9 8 7 9
0 2 2 7 13 10 9 9 7 4 2 2 6 7 5 6 8 7 8 8 8 9 7 7 11 13 13 12 11 11 11 11 10 9 8 6 5 6 6 7 8 8 9 9 11 9 9 8 8
3 2 5 6 10 7 6 7 7 4 2 6 3 6 5 4 6 9 10 9 8 7 7 6 7 10 13 12 11 11 11 10 10 9 9 9 8 7 5 6 8 8 8 10 11 10 10 9 10
4 3 3 4 7 10 2 2 7 4 2 2 3 7 6 7 8 8 9 8 8 7 7 7 6 6 6 5 10 10 10 10 11 11 10 10 10 9 9 8 7 8 10 8 10 10 11 11 10
3 2 4 6 8 8 3 3 4 4 6 3 4 4 6 11 9 7 6 5 6 6 7 7 6 5 6 6 6 7 9 9 9 7 9 7 5 6 6 7 8 10 11 12 12 10 8 10 10
5 5 7 5 3 1 1 5 2 2 3 3 5 5 7 9 6 8 8 7 5 6 6 7 6 5 5 4 5 5 5 4 3 4 4 3 3 4 5 6 8 9 9 9 11 14 11 8 5
5 5 9 3 1 3 2 2 1 4 3 6 9 12 9 6 7 8 7 8 8 7 6 7 6 5 5 4 3 3 2 2 2 3 3 3 3 3 3 3 3 4 6 4 6 5 4 7 6
3 6 12 4 0 1 2 5 4 4 6 5 4 13 9 9 9 8 7 8 10 7 8 8 7 5 4 3 3 3 2 1 2 2 4 2 2 4 4 3 5 4 3 5 5 4 6 8 9
10 7 5 5 4 1 2 3 5 7 9 3 8 8 9 8 8 6 7 8 8 8 7 8 7 6 4 5 3 3 3 3 3 4 4 4 3 4 4 4 4 5 4 4 5 5 5 7 8
1 3 6 4 6 3 3 4 1 7 12 8 8 10 9 9 9 6 7 7 7 8 8 8 8 6 5 3 3 2 3 3 4 4 4 5 4 4 4 4 4 5 4 4 5 5 5 5 5
2 2 6 4 5 1 5 9 14 12 5 9 11 9 9 10 9 9 8 8 8 6 8 8 8 6 6 5 3 2 2 4 4 4 6 6 5 5 5 4 4 4 4 6 5 5 5 4 5
3 2 1 4 10 4 7 11 8 9 11 9 9 9 9 9 9 8 8 7 7 8 9 8 6 7 5 4 2 2 2 3 3 4 4 6 5 5 5 4 4 5 5 4 4 4 6 5 4
2 4 7 6 9 7 7 7 4 5 8 9 8 8 8 8 6 7 7 8 9 8 9 8 7 5 4 2 2 3 4 3 4 4 4 6 5 5 4 4 4 5 5 6 6 7 4 6 4
6 5 5 7 7 5 6 15 11 8 4 10 10 9 9 9 8 8 8 8 8 8 8 8 6 6 4 2 3 2 3 2 3 4 4 6 4 5 4 4 5 5 6 6 6 7 6 5 6
1 3 3 0 2 4 9 13 15 8 9 11 10 9 10 10 8 9 9 9 8 8 8 7 7 4 2 2 2 2 3 2 2 3 6 6 5 6 5 4 4 4 5 6 7 8 8 6 4
11 3 5 0 2 2 2 14 13 9 12 16 14 10 11 8 9 10 10 7 7 8 8 7 6 4 2 2 1 1 2 2 3 3 4 5 5 5 6 4 4 4 5 7 7 7 6 4 3
7 7 4 5 4 4 4 10 7 6 11 7 13 13 10 15 16 13 12 9 8 8 8 7 6 4 2 1 1 2 2 2 2 2 3 3 5 6 6 6 5 5 4 6 6 5 7 7 4
5 3 5 4 3 4 3 7 7 4 6 6 8 10 11 13 14 15 13 10 9 7 7 7 6 4 2 1 1 1 2 3 2 2 3 4 5 5 6 7 7 9 6 8 7 7 7 5 7
5 2 4 2 2 4 3 3 10 3 7 9 10 9 9 11 17 15 13 12 8 9 8 7 6 3 2 1 1 1 2 2 3 3 5 5 4 5 5 6 8 8 7 8 8 9 11 8 8
6 5 6 5 3 2 9 8 7 6 7 3 5 8 9 11 14 13 10 10 8 7 7 7 5 3 2 1 1 2 3 5 4 4 4 3 3 4 6 9 9 9 9 9 8 9 10 9 10
1 5 3 5 3 9 4 4 11 6 6 7 11 9 9 12 12 11 11 10 8 8 8 6 6 4 3 1 1 2 3 4 5 5 4 6 5 5 7 8 8 8 9 10 10 10 11 11 10
6 5 7 9 5 5 5 8 9 5 4 5 10 10 9 9 10 11 11 9 9 9 8 7 6 4 2 1 3 3 4 3 3 4 4 5 5 7 9 8 9 10 10 10 10 9 10 11 10
6 5 3 5 1 5 5 8 8 3 3 6 9 9 10 10 10 11 10 9 9 9 9 8 7 4 3 4 3 3 3 5 5 6 4 4 6 7 9 10 11 11 11 11 11 9 11 11 11
2 1 3 2 2 4 5 6 7 7 10 8 9 10 9 9 9 9 9 10 7 7 7 7 7 6 4 3 2 2 4 5 5 5 5 6 8 9 9 10 10 11 11 11 11 10 11 12 11
2 2 1 2 5 6 2 8 8 7 13 14 11 9 10 10 11 10 8 8 9 7 7 7 7 6 5 4 2 3 4 4 4 4 5 7 9 9 9 10 11 11 11 11 11 12 13 14 14
4 6 6 5 6 4 3 9 2 6 11 14 11 9 7 7 9 9 9 9 9 8 7 8 7 6 6 3 1 2 3 4 5 5 6 8 8 8 9 10 10 10 10 11 12 13 12 13 14
Wind_Direction
311 294 348 21 51 78 239 257 240 281 231 135 97 89 114 62 51 154 237 89 45 130 125 120 121 119 119 115 106 100 94 94 89 109 104 108 106 101 93 81 70 50 33 55 84 181 226 216 187
337 305 81 38 120 198 268 251 273 219 148 96 71 103 48 73 58 125 85 70 74 113 100 95 109 111 115 120 118 114 108 97 88 83 85 73 80 108 100 89 64 31 354 352 355 175 201 215 204
303 213 95 159 183 204 232 248 291 243 98 87 85 72 92 110 28 102 145 103 98 82 88 84 87 89 95 111 121 120 113 104 92 92 97 107 96 4 226 212 247 263 274 290 288 279 232 212 212
109 0 341 184 247 258 234 266 291 177 55 103 123 75 56 237 128 135 127 106 89 79 72 82 88 92 87 79 76 94 125 122 94 4 308 275 265 245 254 248 252 256 263 258 257 267 272 235 216
252 70 219 219 247 254 235 226 118 178 156 197 129 145 97 25 118 128 118 104 103 92 90 93 98 98 98 99 86 75 70 63 50 29 331 305 301 307 294 286 277 278 276 276 268 261 268 269 240
247 150 176 227 249 255 265 205 144 154 90 354 94 105 155 149 104 125 109 104 104 118 103 92 90 87 88 92 90 82 81 80 75 62 53 46 23 354 319 300 292 283 280 283 277 266 258 261 260
175 75 220 243 265 284 253 146 152 163 141 185 157 96 156 132 146 122 115 107 107 102 104 100 90 92 90 91 94 95 86 81 71 64 60 54 60 39 4 318 300 290 290 285 277 263 258 254 255
156 155 247 250 263 274 231 85 148 121 121 199 85 155 170 195 153 126 118 120 116 112 107 103 109 110 98 95 97 92 85 75 66 55 52 44 37 24 11 16 353 312 287 286 305 267 252 252 251
168 210 220 230 241 254 264 105 356 141 125 65 33 133 165 149 141 125 121 114 117 114 115 105 97 100 116 115 99 87 81 76 64 48 41 29 21 16 10 353 351 348 322 293 275 278 286 273 257
169 195 226 230 234 353 333 92 148 83 139 119 69 67 113 132 153 158 162 158 140 135 125 114 101 89 91 93 88 81 76 65 69 67 45 25 7 344 353 343 336 336 332 322 297 283 273 279 265
201 205 234 326 134 34 359 29 86 132 253 211 179 171 163 158 169 175 193 182 163 154 124 120 111 93 92 89 85 70 66 46 34 47 20 346 351 333 321 319 321 315 319 318 322 291 259 251 250
229 229 243 231 136 96 79 319 349 190 215 152 136 177 160 165 179 187 169 139 141 147 143 135 129 118 99 98 87 90 80 33 20 339 346 349 323 315 304 303 296 288 284 289 298 303 301 276 256
222 243 249 115 145 141 16 282 248 261 259 208 121 139 168 168 180 192 160 159 146 138 144 151 141 135 113 91 68 43 18 12 341 353 341 349 330 309 299 293 298 293 295 270 273 278 287 296 294
11 220 257 227 164 164 163 267 67 249 237 193 170 168 172 180 189 156 148 151 153 148 153 143 129 124 108 94 72 39 10 344 358 349 338 341 333 320 311 314 305 301 295 287 272 259 254 267 285
98 356 337 234 173 127 94 283 237 219 210 209 192 194 190 199 190 175 169 161 172 161 147 127 120 108 95 87 68 35 352 8 352 328 325 320 322 319 317 319 310 300 305 304 293 277 270 259 263
127 74 218 249 161 181 120 264 278 238 181 203 190 196 200 215 193 176 175 176 167 137 133 123 107 104 98 84 47 8 344 346 318 306 309 317 324 333 327 322 314 310 315 304 303 292 277 257 247
293 201 210 291 180 135 179 265 278 90 162 205 215 215 205 202 179 169 156 148 142 137 129 118 112 119 103 62 9 358 345 336 335 345 337 321 321 324 325 315 310 320 316 312 308 302 285 288 271
200 222 243 204 211 144 197 258 271 281 249 213 215 215 197 182 184 157 135 125 125 122 118 123 123 115 92 55 21 351 344 356 341 325 316 324 314 313 311 304 307 315 310 306 302 295 291 282 283
57 206 309 148 321 148 227 262 259 252 236 226 222 203 193 184 186 151 139 133 124 122 117 126 121 100 83 39 16 359 299 300 307 305 294 294 301 301 299 289 294 302 304 305 304 302 298 298 296
260 268 261 195 196 185 252 268 265 243 240 216 201 206 194 169 159 154 144 139 144 149 140 131 118 102 78 97 212 225 277 299 277 291 325 342 334 320 310 321 297 291 295 298 297 299 303 292 280
225 203 215 235 186 251 16 289 271 269 236 205 201 199 187 172 168 162 156 156 150 158 151 136 124 121 109 147 346 339 334 313 297 313 300 319 321 315 310 299 285 282 274 286 285 285 288 291 285
222 236 172 166 100 228 134 274 297 249 245 211 178 184 193 165 171 164 159 160 165 162 148 128 132 125 158 102 58 341 241 282 267 291 291 309 320 321 322 314 308 296 285 281 283 281 272 282 284
219 126 135 128 152 53 242 76 266 252 249 228 213 198 199 171 166 167 168 164 157 151 149 136 131 132 154 116 117 262 281 261 298 307 300 295 292 295 294 304 304 303 300 291 287 285 281 279 287
143 71 43 45 73 356 227 165 274 210 221 232 186 202 187 160 163 163 161 138 142 146 137 138 141 164 150 137 299 304 307 313 309 290 297 298 299 298 297 310 304 299 295 294 291 285 276 273 272
62 104 14 354 3 219 324 156 245 250 237 208 178 179 165 152 150 154 150 149 147 157 153 152 158 186 197 244 295 298 303 286 289 298 292 302 303 305 301 302 295 291 290 286 281 278 274 269 265
188 178 166 198 202 248 359 231 248 228 222 174 150 153 150 153 156 158 158 161 161 161 161 165 163 178 193 258 276 282 279 274 281 284 282 291 298 307 305 299 297 297 292 288 287 282 276 268 264
188 206 192 100 44 62 221 275 290 193 110 107 149 155 173 171 173 170 173 172 162 162 171 168 162 171 197 228 249 285 307 313 310 302 299 306 311 309 315 312 306 300 292 286 282 277 275 274 272
182 205 104 1 176 253 275 271 241 211 201 182 165 181 185 180 174 177 171 162 163 166 161 156 160 177 201 228 257 296 301 316 311 316 317 319 312 311 306 301 296 296 290 287 281 276 270 267 264
139 216 219 151 166 178 188 255 224 222 193 190 197 190 191 181 181 174 168 164 162 158 159 161 161 175 203 214 233 296 316 318 324 325 320 318 314 310 302 297 293 288 287 283 278 272 270 268 267
201 207 184 156 238 219 174 262 340 305 201 179 188 197 200 182 179 168 167 165 165 171 167 170 173 181 198 190 223 298 316 342 337 328 317 307 305 302 294 292 290 289 287 286 283 282 276 269 265